Station,Date and time,DO,EC,Temp
ʶҹ��Ѵ������-�ҧ�С�,1/4/2021 0:30,7.3,19760.7,23.7
ʶҹ��Ѵ������-�ҧ�С�,1/4/2021 1:00,7.3,18535.9,23.7
ʶҹ��Ѵ������-�ҧ�С�,1/4/2021 1:30,7.2,18076.3,23.6
ʶҹ��Ѵ������-�ҧ�С�,1/4/2021 2:00,7.0,17336.1,23.6
ʶҹ��Ѵ������-�ҧ�С�,1/4/2021 2:30,6.9,17167.9,23.6
ʶҹ��Ѵ������-�ҧ�С�,1/4/2021 3:00,6.8,15982.9,23.5
ʶҹ��Ѵ������-�ҧ�С�,1/4/2021 3:30,6.6,15921.2,23.5
ʶҹ��Ѵ������-�ҧ�С�,1/4/2021 4:00,6.6,15619.6,23.3
ʶҹ��Ѵ������-�ҧ�С�,1/4/2021 4:30,6.4,14337.0,23.2
ʶҹ��Ѵ������-�ҧ�С�,1/4/2021 5:00,6.4,14582.2,23.2
ʶҹ��Ѵ������-�ҧ�С�,1/4/2021 5:30,6.3,13507.8,23.2
ʶҹ��Ѵ������-�ҧ�С�,1/4/2021 6:00,6.3,13306.0,23.2
ʶҹ��Ѵ������-�ҧ�С�,1/4/2021 6:30,6.3,13085.8,23.2
ʶҹ��Ѵ������-�ҧ�С�,1/4/2021 7:00,6.3,13119.0,23.3
ʶҹ��Ѵ������-�ҧ�С�,1/4/2021 7:30,6.2,13823.9,23.4
ʶҹ��Ѵ������-�ҧ�С�,1/4/2021 8:00,6.2,14327.0,23.5
ʶҹ��Ѵ������-�ҧ�С�,1/4/2021 8:30,6.3,14911.0,23.8
ʶҹ��Ѵ������-�ҧ�С�,1/4/2021 9:00,6.4,15658.2,24.2
ʶҹ��Ѵ������-�ҧ�С�,1/4/2021 9:30,6.4,16141.8,24.6
ʶҹ��Ѵ������-�ҧ�С�,1/4/2021 10:00,6.5,17381.5,25.7
ʶҹ��Ѵ������-�ҧ�С�,1/4/2021 10:30,6.6,18199.0,25.5
ʶҹ��Ѵ������-�ҧ�С�,1/4/2021 11:00,6.5,19517.3,25.7
ʶҹ��Ѵ������-�ҧ�С�,1/4/2021 11:30,6.6,20736.0,25.6
ʶҹ��Ѵ������-�ҧ�С�,1/4/2021 12:00,6.6,21794.4,25.7
ʶҹ��Ѵ������-�ҧ�С�,1/4/2021 12:30,6.5,22904.3,25.8
ʶҹ��Ѵ������-�ҧ�С�,1/4/2021 13:00,6.5,23368.5,26.0
ʶҹ��Ѵ������-�ҧ�С�,1/4/2021 13:30,6.6,23724.3,25.9
ʶҹ��Ѵ������-�ҧ�С�,1/4/2021 14:00,6.7,23874.3,26.1
ʶҹ��Ѵ������-�ҧ�С�,1/4/2021 14:30,6.9,22386.2,26.3
ʶҹ��Ѵ������-�ҧ�С�,1/4/2021 15:00,6.7,23753.4,26.1
ʶҹ��Ѵ������-�ҧ�С�,1/4/2021 15:30,7.3,22678.7,26.0
ʶҹ��Ѵ������-�ҧ�С�,1/4/2021 16:00,7.0,22594.4,26.0
ʶҹ��Ѵ������-�ҧ�С�,1/4/2021 16:30,6.9,22528.0,25.6
ʶҹ��Ѵ������-�ҧ�С�,1/4/2021 17:00,6.9,22026.7,25.5
ʶҹ��Ѵ������-�ҧ�С�,1/4/2021 17:30,7.2,21974.4,25.3
ʶҹ��Ѵ������-�ҧ�С�,1/4/2021 18:00,7.1,21531.0,24.9
ʶҹ��Ѵ������-�ҧ�С�,1/4/2021 18:30,7.2,20790.1,24.7
ʶҹ��Ѵ������-�ҧ�С�,1/4/2021 19:00,7.2,21500.1,24.6
ʶҹ��Ѵ������-�ҧ�С�,1/4/2021 19:30,7.2,21126.9,24.5
ʶҹ��Ѵ������-�ҧ�С�,1/4/2021 20:00,7.2,20808.0,24.5
ʶҹ��Ѵ������-�ҧ�С�,1/4/2021 20:30,7.5,20815.4,24.3
ʶҹ��Ѵ������-�ҧ�С�,1/4/2021 21:00,7.2,21626.2,24.3
ʶҹ��Ѵ������-�ҧ�С�,1/4/2021 21:30,7.4,21466.2,24.2
ʶҹ��Ѵ������-�ҧ�С�,1/4/2021 22:00,7.5,21357.0,24.1
ʶҹ��Ѵ������-�ҧ�С�,1/4/2021 22:30,7.6,21104.7,24.0
ʶҹ��Ѵ������-�ҧ�С�,1/4/2021 23:00,8.1,19020.5,24.0
ʶҹ��Ѵ������-�ҧ�С�,1/4/2021 23:30,8.0,18823.5,24.0
ʶҹ��Ѵ������-�ҧ�С�,1/5/2021 0:00,7.7,19289.5,24.0
ʶҹ��Ѵ������-�ҧ�С�,1/5/2021 0:30,7.6,19336.3,23.9
ʶҹ��Ѵ������-�ҧ�С�,1/5/2021 1:00,7.2,20000.4,23.9
ʶҹ��Ѵ������-�ҧ�С�,1/5/2021 1:30,7.1,20139.1,23.8
ʶҹ��Ѵ������-�ҧ�С�,1/5/2021 2:00,7.0,19639.0,23.8
ʶҹ��Ѵ������-�ҧ�С�,1/5/2021 2:30,6.9,19164.2,23.7
ʶҹ��Ѵ������-�ҧ�С�,1/5/2021 3:00,6.9,18785.4,23.7
ʶҹ��Ѵ������-�ҧ�С�,1/5/2021 3:30,6.9,18376.6,23.7
ʶҹ��Ѵ������-�ҧ�С�,1/5/2021 4:00,6.8,17877.3,23.7
ʶҹ��Ѵ������-�ҧ�С�,1/5/2021 4:30,6.7,17220.3,23.6
ʶҹ��Ѵ������-�ҧ�С�,1/5/2021 5:00,6.7,16614.2,23.6
ʶҹ��Ѵ������-�ҧ�С�,1/5/2021 5:30,6.6,15891.6,23.5
ʶҹ��Ѵ������-�ҧ�С�,1/5/2021 6:00,6.5,15362.4,23.5
ʶҹ��Ѵ������-�ҧ�С�,1/5/2021 6:30,6.4,14837.4,23.5
ʶҹ��Ѵ������-�ҧ�С�,1/5/2021 7:00,6.4,14645.1,23.5
ʶҹ��Ѵ������-�ҧ�С�,1/5/2021 7:30,6.4,14493.4,23.6
ʶҹ��Ѵ������-�ҧ�С�,1/5/2021 8:00,6.4,14894.6,24.2
ʶҹ��Ѵ������-�ҧ�С�,1/5/2021 8:30,6.4,15716.9,24.9
ʶҹ��Ѵ������-�ҧ�С�,1/5/2021 9:00,6.3,16449.7,26.3
ʶҹ��Ѵ������-�ҧ�С�,1/5/2021 9:30,6.4,17137.9,26.4
ʶҹ��Ѵ������-�ҧ�С�,1/5/2021 10:00,6.4,17988.1,26.0
ʶҹ��Ѵ������-�ҧ�С�,1/5/2021 10:30,6.5,18608.8,25.6
ʶҹ��Ѵ������-�ҧ�С�,1/5/2021 11:00,6.5,19317.8,25.6
ʶҹ��Ѵ������-�ҧ�С�,1/5/2021 11:30,6.4,20481.5,26.1
ʶҹ��Ѵ������-�ҧ�С�,1/5/2021 12:00,6.4,21155.6,26.6
ʶҹ��Ѵ������-�ҧ�С�,1/5/2021 12:30,6.4,21975.5,26.0
ʶҹ��Ѵ������-�ҧ�С�,1/5/2021 13:00,6.4,22433.2,26.1
ʶҹ��Ѵ������-�ҧ�С�,1/5/2021 13:30,6.5,23419.1,25.8
ʶҹ��Ѵ������-�ҧ�С�,1/5/2021 14:00,6.6,23787.0,25.5
ʶҹ��Ѵ������-�ҧ�С�,1/5/2021 14:30,6.6,23520.9,25.4
ʶҹ��Ѵ������-�ҧ�С�,1/5/2021 15:00,6.6,23358.6,25.4
ʶҹ��Ѵ������-�ҧ�С�,1/5/2021 15:30,6.6,22328.7,25.3
ʶҹ��Ѵ������-�ҧ�С�,1/5/2021 16:00,6.6,23116.0,25.3
ʶҹ��Ѵ������-�ҧ�С�,1/5/2021 16:30,6.6,23485.6,25.3
ʶҹ��Ѵ������-�ҧ�С�,1/5/2021 17:00,6.6,23305.1,25.2
ʶҹ��Ѵ������-�ҧ�С�,1/5/2021 17:30,6.7,22671.9,25.1
ʶҹ��Ѵ������-�ҧ�С�,1/5/2021 18:00,6.7,22720.2,24.9
ʶҹ��Ѵ������-�ҧ�С�,1/5/2021 18:30,6.7,22408.4,24.8
ʶҹ��Ѵ������-�ҧ�С�,1/5/2021 19:00,6.7,21993.7,24.8
ʶҹ��Ѵ������-�ҧ�С�,1/5/2021 19:30,6.8,21481.2,24.7
ʶҹ��Ѵ������-�ҧ�С�,1/5/2021 20:00,6.9,20919.6,24.7
ʶҹ��Ѵ������-�ҧ�С�,1/5/2021 20:30,6.9,20064.0,24.6
ʶҹ��Ѵ������-�ҧ�С�,1/5/2021 21:00,6.9,20220.6,24.6
ʶҹ��Ѵ������-�ҧ�С�,1/5/2021 21:30,7.0,19956.0,24.5
ʶҹ��Ѵ������-�ҧ�С�,1/5/2021 22:00,7.0,19575.5,24.5
ʶҹ��Ѵ������-�ҧ�С�,1/5/2021 22:30,6.9,20078.0,24.4
ʶҹ��Ѵ������-�ҧ�С�,1/5/2021 23:00,6.7,21309.6,24.4
ʶҹ��Ѵ������-�ҧ�С�,1/5/2021 23:30,6.8,21315.4,24.4
ʶҹ��Ѵ������-�ҧ�С�,1/6/2021 0:00,7.0,19838.0,24.3
ʶҹ��Ѵ������-�ҧ�С�,1/6/2021 0:30,7.0,19011.7,24.3
ʶҹ��Ѵ������-�ҧ�С�,1/6/2021 1:00,6.8,20151.1,24.3
ʶҹ��Ѵ������-�ҧ�С�,1/6/2021 1:30,6.8,20023.1,24.2
ʶҹ��Ѵ������-�ҧ�С�,1/6/2021 2:00,6.8,20043.6,24.1
ʶҹ��Ѵ������-�ҧ�С�,1/6/2021 2:30,6.7,19692.8,24.1
ʶҹ��Ѵ������-�ҧ�С�,1/6/2021 3:00,6.7,19403.4,24.0
ʶҹ��Ѵ������-�ҧ�С�,1/6/2021 3:30,6.7,19225.7,24.0
ʶҹ��Ѵ������-�ҧ�С�,1/6/2021 4:00,6.6,18767.6,23.9
ʶҹ��Ѵ������-�ҧ�С�,1/6/2021 4:30,6.6,17976.3,23.9
ʶҹ��Ѵ������-�ҧ�С�,1/6/2021 5:00,6.6,17390.3,23.9
ʶҹ��Ѵ������-�ҧ�С�,1/6/2021 5:30,6.5,16925.8,23.8
ʶҹ��Ѵ������-�ҧ�С�,1/6/2021 6:00,6.5,16463.5,23.7
ʶҹ��Ѵ������-�ҧ�С�,1/6/2021 6:30,6.5,16060.6,23.7
ʶҹ��Ѵ������-�ҧ�С�,1/6/2021 7:00,6.4,15667.3,23.7
ʶҹ��Ѵ������-�ҧ�С�,1/6/2021 7:30,6.4,15392.4,24.2
ʶҹ��Ѵ������-�ҧ�С�,1/6/2021 8:00,6.5,15446.1,24.3
ʶҹ��Ѵ������-�ҧ�С�,1/6/2021 8:30,6.3,16008.9,24.6
ʶҹ��Ѵ������-�ҧ�С�,1/6/2021 9:00,6.3,16587.7,24.7
ʶҹ��Ѵ������-�ҧ�С�,1/6/2021 9:30,6.3,15163.5,25.4
ʶҹ��Ѵ������-�ҧ�С�,1/6/2021 10:00,6.2,18197.1,26.0
ʶҹ��Ѵ������-�ҧ�С�,1/6/2021 10:30,6.2,18454.3,25.9
ʶҹ��Ѵ������-�ҧ�С�,1/6/2021 11:00,6.2,19103.9,26.1
ʶҹ��Ѵ������-�ҧ�С�,1/6/2021 11:30,6.1,19981.0,26.0
ʶҹ��Ѵ������-�ҧ�С�,1/6/2021 12:00,6.1,21463.4,26.1
ʶҹ��Ѵ������-�ҧ�С�,1/6/2021 12:30,6.0,21953.2,26.4
ʶҹ��Ѵ������-�ҧ�С�,1/6/2021 13:00,6.1,23046.1,26.5
ʶҹ��Ѵ������-�ҧ�С�,1/6/2021 13:30,6.1,23361.6,26.6
ʶҹ��Ѵ������-�ҧ�С�,1/6/2021 14:00,6.1,23840.1,26.8
ʶҹ��Ѵ������-�ҧ�С�,1/6/2021 14:30,6.1,24218.9,26.9
ʶҹ��Ѵ������-�ҧ�С�,1/6/2021 15:00,6.1,24365.7,27.0
ʶҹ��Ѵ������-�ҧ�С�,1/6/2021 15:30,6.2,23674.2,27.1
ʶҹ��Ѵ������-�ҧ�С�,1/6/2021 16:00,6.5,23021.7,27.1
ʶҹ��Ѵ������-�ҧ�С�,1/6/2021 16:30,6.3,23342.5,26.9
ʶҹ��Ѵ������-�ҧ�С�,1/6/2021 17:00,6.1,24075.6,26.7
ʶҹ��Ѵ������-�ҧ�С�,1/6/2021 17:30,6.2,23674.5,26.2
ʶҹ��Ѵ������-�ҧ�С�,1/6/2021 18:00,6.3,23829.3,25.8
ʶҹ��Ѵ������-�ҧ�С�,1/6/2021 18:30,6.3,23390.5,25.5
ʶҹ��Ѵ������-�ҧ�С�,1/6/2021 19:00,6.3,23059.5,25.3
ʶҹ��Ѵ������-�ҧ�С�,1/6/2021 19:30,6.4,22896.7,25.2
ʶҹ��Ѵ������-�ҧ�С�,1/6/2021 20:00,6.6,22091.8,25.2
ʶҹ��Ѵ������-�ҧ�С�,1/6/2021 20:30,6.9,21416.5,25.2
ʶҹ��Ѵ������-�ҧ�С�,1/6/2021 21:00,7.1,20741.8,25.1
ʶҹ��Ѵ������-�ҧ�С�,1/6/2021 21:30,7.1,20433.4,25.0
ʶҹ��Ѵ������-�ҧ�С�,1/6/2021 22:00,7.1,20256.6,24.9
ʶҹ��Ѵ������-�ҧ�С�,1/6/2021 22:30,7.3,20160.2,24.8
ʶҹ��Ѵ������-�ҧ�С�,1/6/2021 23:00,7.0,20733.2,24.7
ʶҹ��Ѵ������-�ҧ�С�,1/6/2021 23:30,7.3,19974.2,24.6
ʶҹ��Ѵ������-�ҧ�С�,1/7/2021 0:00,7.2,20089.0,24.6
ʶҹ��Ѵ������-�ҧ�С�,1/7/2021 0:30,7.1,20394.8,24.4
ʶҹ��Ѵ������-�ҧ�С�,1/7/2021 1:00,7.3,19187.9,24.3
ʶҹ��Ѵ������-�ҧ�С�,1/7/2021 1:30,7.1,19513.5,24.3
ʶҹ��Ѵ������-�ҧ�С�,1/7/2021 2:00,7.2,18961.0,24.3
ʶҹ��Ѵ������-�ҧ�С�,1/7/2021 2:30,7.1,19309.6,24.2
ʶҹ��Ѵ������-�ҧ�С�,1/7/2021 3:00,7.0,19291.9,24.1
ʶҹ��Ѵ������-�ҧ�С�,1/7/2021 3:30,6.9,19488.1,24.0
ʶҹ��Ѵ������-�ҧ�С�,1/7/2021 4:00,6.9,19463.1,24.0
ʶҹ��Ѵ������-�ҧ�С�,1/7/2021 4:30,6.7,19578.4,23.9
ʶҹ��Ѵ������-�ҧ�С�,1/7/2021 5:00,6.7,19422.5,23.9
ʶҹ��Ѵ������-�ҧ�С�,1/7/2021 5:30,6.6,19063.6,23.9
ʶҹ��Ѵ������-�ҧ�С�,1/7/2021 6:00,6.6,18778.4,23.8
ʶҹ��Ѵ������-�ҧ�С�,1/7/2021 6:30,6.6,18276.6,23.7
ʶҹ��Ѵ������-�ҧ�С�,1/7/2021 7:00,6.6,18089.7,23.9
ʶҹ��Ѵ������-�ҧ�С�,1/7/2021 7:30,6.5,17861.7,24.4
ʶҹ��Ѵ������-�ҧ�С�,1/7/2021 8:00,6.6,17795.8,24.5
ʶҹ��Ѵ������-�ҧ�С�,1/7/2021 8:30,6.5,18388.6,25.3
ʶҹ��Ѵ������-�ҧ�С�,1/7/2021 9:00,6.3,19024.6,26.2
ʶҹ��Ѵ������-�ҧ�С�,1/7/2021 9:30,6.3,19979.3,25.9
ʶҹ��Ѵ������-�ҧ�С�,1/7/2021 10:00,6.2,21114.3,26.0
ʶҹ��Ѵ������-�ҧ�С�,1/7/2021 10:30,6.1,22044.0,26.1
ʶҹ��Ѵ������-�ҧ�С�,1/7/2021 11:00,6.1,22615.2,25.8
ʶҹ��Ѵ������-�ҧ�С�,1/7/2021 11:30,6.1,23275.5,25.9
ʶҹ��Ѵ������-�ҧ�С�,1/7/2021 12:00,6.1,23920.5,26.2
ʶҹ��Ѵ������-�ҧ�С�,1/7/2021 12:30,6.0,24141.3,26.4
ʶҹ��Ѵ������-�ҧ�С�,1/7/2021 13:00,6.0,25083.4,26.5
ʶҹ��Ѵ������-�ҧ�С�,1/7/2021 13:30,6.0,25696.0,26.8
ʶҹ��Ѵ������-�ҧ�С�,1/7/2021 14:00,6.0,25937.6,26.6
ʶҹ��Ѵ������-�ҧ�С�,1/7/2021 14:30,6.0,26145.2,26.7
ʶҹ��Ѵ������-�ҧ�С�,1/7/2021 15:00,6.0,26224.4,26.8
ʶҹ��Ѵ������-�ҧ�С�,1/7/2021 15:30,6.0,26001.0,27.0
ʶҹ��Ѵ������-�ҧ�С�,1/7/2021 16:00,6.0,25816.8,27.0
ʶҹ��Ѵ������-�ҧ�С�,1/7/2021 16:30,6.0,25651.8,27.0
ʶҹ��Ѵ������-�ҧ�С�,1/7/2021 17:00,5.9,25912.8,26.6
ʶҹ��Ѵ������-�ҧ�С�,1/7/2021 17:30,6.0,25823.3,26.3
ʶҹ��Ѵ������-�ҧ�С�,1/7/2021 18:00,6.1,25582.3,25.9
ʶҹ��Ѵ������-�ҧ�С�,1/7/2021 18:30,6.2,25270.3,25.6
ʶҹ��Ѵ������-�ҧ�С�,1/7/2021 19:00,6.2,24895.4,25.4
ʶҹ��Ѵ������-�ҧ�С�,1/7/2021 19:30,6.2,24670.1,25.3
ʶҹ��Ѵ������-�ҧ�С�,1/7/2021 20:00,6.4,23951.0,25.2
ʶҹ��Ѵ������-�ҧ�С�,1/7/2021 20:30,6.6,23021.2,25.2
ʶҹ��Ѵ������-�ҧ�С�,1/7/2021 21:00,6.9,21741.6,25.1
ʶҹ��Ѵ������-�ҧ�С�,1/7/2021 21:30,7.0,21061.5,25.1
ʶҹ��Ѵ������-�ҧ�С�,1/7/2021 22:00,7.0,20955.2,25.0
ʶҹ��Ѵ������-�ҧ�С�,1/7/2021 22:30,7.0,20890.2,24.9
ʶҹ��Ѵ������-�ҧ�С�,1/7/2021 23:00,7.0,20798.7,24.8
ʶҹ��Ѵ������-�ҧ�С�,1/7/2021 23:30,7.0,20498.9,24.7
ʶҹ��Ѵ������-�ҧ�С�,1/8/2021 0:00,7.1,20352.4,24.6
ʶҹ��Ѵ������-�ҧ�С�,1/8/2021 0:30,7.1,20381.1,24.5
ʶҹ��Ѵ������-�ҧ�С�,1/8/2021 1:00,6.8,21157.5,24.5
ʶҹ��Ѵ������-�ҧ�С�,1/8/2021 1:30,6.9,20726.8,24.4
ʶҹ��Ѵ������-�ҧ�С�,1/8/2021 2:00,6.9,20510.6,24.4
ʶҹ��Ѵ������-�ҧ�С�,1/8/2021 2:30,6.9,20756.7,24.3
ʶҹ��Ѵ������-�ҧ�С�,1/8/2021 3:00,6.7,21407.8,24.3
ʶҹ��Ѵ������-�ҧ�С�,1/8/2021 3:30,6.7,21382.3,24.1
ʶҹ��Ѵ������-�ҧ�С�,1/8/2021 4:00,6.7,21478.7,24.1
ʶҹ��Ѵ������-�ҧ�С�,1/8/2021 4:30,6.8,21058.0,24.0
ʶҹ��Ѵ������-�ҧ�С�,1/8/2021 5:00,6.6,21583.4,24.1
ʶҹ��Ѵ������-�ҧ�С�,1/8/2021 5:30,6.7,21149.0,24.0
ʶҹ��Ѵ������-�ҧ�С�,1/8/2021 6:00,6.7,21171.9,23.9
ʶҹ��Ѵ������-�ҧ�С�,1/8/2021 6:30,6.5,20876.1,23.9
ʶҹ��Ѵ������-�ҧ�С�,1/8/2021 7:00,6.5,21124.7,24.0
ʶҹ��Ѵ������-�ҧ�С�,1/8/2021 7:30,6.4,20684.1,24.4
ʶҹ��Ѵ������-�ҧ�С�,1/8/2021 8:00,6.4,20663.0,24.6
ʶҹ��Ѵ������-�ҧ�С�,1/8/2021 8:30,6.5,20451.1,24.9
ʶҹ��Ѵ������-�ҧ�С�,1/8/2021 9:00,6.5,19826.9,25.8
ʶҹ��Ѵ������-�ҧ�С�,1/8/2021 9:30,6.5,21117.4,26.0
ʶҹ��Ѵ������-�ҧ�С�,1/8/2021 10:00,6.3,20856.8,26.0
ʶҹ��Ѵ������-�ҧ�С�,1/8/2021 10:30,6.4,22091.1,26.0
ʶҹ��Ѵ������-�ҧ�С�,1/8/2021 11:00,6.2,23853.4,25.8
ʶҹ��Ѵ������-�ҧ�С�,1/8/2021 11:30,6.2,24615.6,26.0
ʶҹ��Ѵ������-�ҧ�С�,1/8/2021 12:00,6.1,25491.6,26.1
ʶҹ��Ѵ������-�ҧ�С�,1/8/2021 12:30,5.9,26467.7,26.2
ʶҹ��Ѵ������-�ҧ�С�,1/8/2021 13:00,5.9,27122.8,26.2
ʶҹ��Ѵ������-�ҧ�С�,1/8/2021 13:30,5.9,27283.2,26.3
ʶҹ��Ѵ������-�ҧ�С�,1/8/2021 14:00,6.0,27892.0,26.3
ʶҹ��Ѵ������-�ҧ�С�,1/8/2021 14:30,6.0,28036.5,26.3
ʶҹ��Ѵ������-�ҧ�С�,1/8/2021 15:00,6.0,27932.9,26.2
ʶҹ��Ѵ������-�ҧ�С�,1/8/2021 15:30,6.2,27683.5,26.1
ʶҹ��Ѵ������-�ҧ�С�,1/8/2021 16:00,6.0,27646.1,26.3
ʶҹ��Ѵ������-�ҧ�С�,1/8/2021 16:30,6.0,27471.2,26.1
ʶҹ��Ѵ������-�ҧ�С�,1/8/2021 17:00,6.0,26440.5,26.1
ʶҹ��Ѵ������-�ҧ�С�,1/8/2021 17:30,6.1,27394.1,25.6
ʶҹ��Ѵ������-�ҧ�С�,1/8/2021 18:00,6.2,27308.3,25.1
ʶҹ��Ѵ������-�ҧ�С�,1/8/2021 18:30,6.3,26733.8,24.9
ʶҹ��Ѵ������-�ҧ�С�,1/8/2021 19:00,6.3,26333.5,24.8
ʶҹ��Ѵ������-�ҧ�С�,1/8/2021 19:30,6.5,25871.4,24.7
ʶҹ��Ѵ������-�ҧ�С�,1/8/2021 20:00,6.5,25393.6,24.7
ʶҹ��Ѵ������-�ҧ�С�,1/8/2021 20:30,6.7,24433.3,24.6
ʶҹ��Ѵ������-�ҧ�С�,1/8/2021 21:00,6.8,23898.9,24.6
ʶҹ��Ѵ������-�ҧ�С�,1/8/2021 21:30,6.7,23710.2,24.6
ʶҹ��Ѵ������-�ҧ�С�,1/8/2021 22:00,6.7,23196.1,24.5
ʶҹ��Ѵ������-�ҧ�С�,1/8/2021 22:30,6.7,23081.3,24.5
ʶҹ��Ѵ������-�ҧ�С�,1/8/2021 23:00,6.7,21866.8,24.4
ʶҹ��Ѵ������-�ҧ�С�,1/8/2021 23:30,6.7,21769.5,24.3
ʶҹ��Ѵ������-�ҧ�С�,1/9/2021 0:00,6.7,22100.0,24.2
ʶҹ��Ѵ������-�ҧ�С�,1/9/2021 0:30,6.7,22369.9,24.1
ʶҹ��Ѵ������-�ҧ�С�,1/9/2021 1:00,6.7,22520.8,24.0
ʶҹ��Ѵ������-�ҧ�С�,1/9/2021 1:30,6.7,22946.6,24.0
ʶҹ��Ѵ������-�ҧ�С�,1/9/2021 2:00,6.7,23172.8,23.9
ʶҹ��Ѵ������-�ҧ�С�,1/9/2021 2:30,6.6,22588.5,23.8
ʶҹ��Ѵ������-�ҧ�С�,1/9/2021 3:00,6.7,23636.7,23.8
ʶҹ��Ѵ������-�ҧ�С�,1/9/2021 3:30,6.7,23727.3,23.6
ʶҹ��Ѵ������-�ҧ�С�,1/9/2021 4:00,6.7,23939.1,23.6
ʶҹ��Ѵ������-�ҧ�С�,1/9/2021 4:30,6.6,23992.4,23.6
ʶҹ��Ѵ������-�ҧ�С�,1/9/2021 5:00,6.8,24115.1,23.5
ʶҹ��Ѵ������-�ҧ�С�,1/9/2021 5:30,6.7,24336.3,23.2
ʶҹ��Ѵ������-�ҧ�С�,1/9/2021 6:00,6.7,24608.4,23.1
ʶҹ��Ѵ������-�ҧ�С�,1/9/2021 6:30,6.6,23642.8,23.0
ʶҹ��Ѵ������-�ҧ�С�,1/9/2021 7:00,6.6,24781.7,23.0
ʶҹ��Ѵ������-�ҧ�С�,1/9/2021 7:30,6.5,24736.0,23.3
ʶҹ��Ѵ������-�ҧ�С�,1/9/2021 8:00,6.6,25136.5,23.4
ʶҹ��Ѵ������-�ҧ�С�,1/9/2021 8:30,6.5,25117.4,23.7
ʶҹ��Ѵ������-�ҧ�С�,1/9/2021 9:00,6.7,24702.4,24.5
ʶҹ��Ѵ������-�ҧ�С�,1/9/2021 9:30,6.9,24586.8,24.6
ʶҹ��Ѵ������-�ҧ�С�,1/9/2021 10:00,6.9,24394.9,25.0
ʶҹ��Ѵ������-�ҧ�С�,1/9/2021 10:30,7.0,24422.0,24.9
ʶҹ��Ѵ������-�ҧ�С�,1/9/2021 11:00,6.7,25173.4,24.9
ʶҹ��Ѵ������-�ҧ�С�,1/9/2021 11:30,6.5,26818.8,24.9
ʶҹ��Ѵ������-�ҧ�С�,1/9/2021 12:00,6.7,26919.3,25.0
ʶҹ��Ѵ������-�ҧ�С�,1/9/2021 12:30,6.2,27792.2,25.4
ʶҹ��Ѵ������-�ҧ�С�,1/9/2021 13:00,6.0,28261.3,25.4
ʶҹ��Ѵ������-�ҧ�С�,1/9/2021 13:30,6.1,29664.2,25.5
ʶҹ��Ѵ������-�ҧ�С�,1/9/2021 14:00,6.2,30035.7,25.7
ʶҹ��Ѵ������-�ҧ�С�,1/9/2021 14:30,6.2,30557.3,25.8
ʶҹ��Ѵ������-�ҧ�С�,1/9/2021 15:00,6.3,30490.9,25.8
ʶҹ��Ѵ������-�ҧ�С�,1/9/2021 15:30,6.3,30865.9,25.8
ʶҹ��Ѵ������-�ҧ�С�,1/9/2021 16:00,6.2,30709.8,25.9
ʶҹ��Ѵ������-�ҧ�С�,1/9/2021 16:30,6.1,31245.1,25.6
ʶҹ��Ѵ������-�ҧ�С�,1/9/2021 17:00,6.2,29855.1,25.6
ʶҹ��Ѵ������-�ҧ�С�,1/9/2021 17:30,6.2,30495.3,25.3
ʶҹ��Ѵ������-�ҧ�С�,1/9/2021 18:00,6.3,30540.2,24.9
ʶҹ��Ѵ������-�ҧ�С�,1/9/2021 18:30,6.3,29987.8,24.6
ʶҹ��Ѵ������-�ҧ�С�,1/9/2021 19:00,6.4,29399.4,24.4
ʶҹ��Ѵ������-�ҧ�С�,1/9/2021 19:30,6.5,28336.8,24.3
ʶҹ��Ѵ������-�ҧ�С�,1/9/2021 20:00,6.5,28137.3,24.2
ʶҹ��Ѵ������-�ҧ�С�,1/9/2021 20:30,6.8,27454.9,24.1
ʶҹ��Ѵ������-�ҧ�С�,1/9/2021 21:00,7.0,26000.1,24.0
ʶҹ��Ѵ������-�ҧ�С�,1/9/2021 21:30,7.0,26117.4,23.9
ʶҹ��Ѵ������-�ҧ�С�,1/9/2021 22:00,7.0,25631.1,23.7
ʶҹ��Ѵ������-�ҧ�С�,1/9/2021 22:30,7.0,25626.4,23.8
ʶҹ��Ѵ������-�ҧ�С�,1/9/2021 23:00,6.9,25249.3,23.7
ʶҹ��Ѵ������-�ҧ�С�,1/9/2021 23:30,7.0,24949.0,23.7
ʶҹ��Ѵ������-�ҧ�С�,1/10/2021 0:00,7.0,24682.7,23.7
ʶҹ��Ѵ������-�ҧ�С�,1/10/2021 0:30,7.0,24514.6,23.7
ʶҹ��Ѵ������-�ҧ�С�,1/10/2021 1:00,7.0,24146.7,23.6
ʶҹ��Ѵ������-�ҧ�С�,1/10/2021 1:30,7.0,24218.3,23.5
ʶҹ��Ѵ������-�ҧ�С�,1/10/2021 2:00,6.9,24615.5,23.5
ʶҹ��Ѵ������-�ҧ�С�,1/10/2021 2:30,6.8,24900.0,23.5
ʶҹ��Ѵ������-�ҧ�С�,1/10/2021 3:00,6.9,25160.2,23.4
ʶҹ��Ѵ������-�ҧ�С�,1/10/2021 3:30,6.9,25441.7,23.3
ʶҹ��Ѵ������-�ҧ�С�,1/10/2021 4:00,6.9,25914.4,23.3
ʶҹ��Ѵ������-�ҧ�С�,1/10/2021 4:30,6.8,26245.8,23.3
ʶҹ��Ѵ������-�ҧ�С�,1/10/2021 5:00,6.7,26810.3,23.3
ʶҹ��Ѵ������-�ҧ�С�,1/10/2021 5:30,6.5,27513.5,23.3
ʶҹ��Ѵ������-�ҧ�С�,1/10/2021 6:00,6.3,28161.6,23.3
ʶҹ��Ѵ������-�ҧ�С�,1/10/2021 6:30,6.4,28727.8,23.2
ʶҹ��Ѵ������-�ҧ�С�,1/10/2021 7:00,6.3,29209.3,23.1
ʶҹ��Ѵ������-�ҧ�С�,1/10/2021 7:30,6.3,29771.0,23.6
ʶҹ��Ѵ������-�ҧ�С�,1/10/2021 8:00,6.2,30376.1,23.7
ʶҹ��Ѵ������-�ҧ�С�,1/10/2021 8:30,6.2,30607.6,24.2
ʶҹ��Ѵ������-�ҧ�С�,1/10/2021 9:00,6.2,30597.6,25.4
ʶҹ��Ѵ������-�ҧ�С�,1/10/2021 9:30,6.2,31099.5,25.2
ʶҹ��Ѵ������-�ҧ�С�,1/10/2021 10:00,6.2,31252.2,25.4
ʶҹ��Ѵ������-�ҧ�С�,1/10/2021 10:30,6.3,31453.1,25.2
ʶҹ��Ѵ������-�ҧ�С�,1/10/2021 11:00,6.3,31471.2,25.2
ʶҹ��Ѵ������-�ҧ�С�,1/10/2021 11:30,6.3,31466.0,25.1
ʶҹ��Ѵ������-�ҧ�С�,1/10/2021 12:00,6.3,31438.2,25.3
ʶҹ��Ѵ������-�ҧ�С�,1/10/2021 12:30,6.5,31359.1,25.6
ʶҹ��Ѵ������-�ҧ�С�,1/10/2021 13:00,6.4,31531.0,25.5
ʶҹ��Ѵ������-�ҧ�С�,1/10/2021 13:30,6.6,31122.2,25.7
ʶҹ��Ѵ������-�ҧ�С�,1/10/2021 14:00,6.8,29859.1,26.0
ʶҹ��Ѵ������-�ҧ�С�,1/10/2021 14:30,6.9,31989.9,26.0
ʶҹ��Ѵ������-�ҧ�С�,1/10/2021 15:00,6.4,32424.3,26.0
ʶҹ��Ѵ������-�ҧ�С�,1/10/2021 15:30,6.4,32034.5,25.9
ʶҹ��Ѵ������-�ҧ�С�,1/10/2021 16:00,6.4,32157.5,26.1
ʶҹ��Ѵ������-�ҧ�С�,1/10/2021 16:30,6.4,31585.3,26.0
ʶҹ��Ѵ������-�ҧ�С�,1/10/2021 17:00,6.1,30924.8,25.7
ʶҹ��Ѵ������-�ҧ�С�,1/10/2021 17:30,6.4,30060.3,25.4
ʶҹ��Ѵ������-�ҧ�С�,1/10/2021 18:00,6.4,31896.2,25.0
ʶҹ��Ѵ������-�ҧ�С�,1/10/2021 18:30,6.5,30657.8,24.7
ʶҹ��Ѵ������-�ҧ�С�,1/10/2021 19:00,6.6,32132.0,24.6
ʶҹ��Ѵ������-�ҧ�С�,1/10/2021 19:30,6.9,31385.3,24.5
ʶҹ��Ѵ������-�ҧ�С�,1/10/2021 20:00,7.3,30246.1,24.4
ʶҹ��Ѵ������-�ҧ�С�,1/10/2021 20:30,7.4,28699.3,24.2
ʶҹ��Ѵ������-�ҧ�С�,1/10/2021 21:00,7.5,28703.6,24.0
ʶҹ��Ѵ������-�ҧ�С�,1/10/2021 21:30,7.3,28441.4,23.9
ʶҹ��Ѵ������-�ҧ�С�,1/10/2021 22:00,7.2,28477.3,23.9
ʶҹ��Ѵ������-�ҧ�С�,1/10/2021 22:30,7.1,27958.8,23.8
ʶҹ��Ѵ������-�ҧ�С�,1/10/2021 23:00,7.2,27503.0,23.7
ʶҹ��Ѵ������-�ҧ�С�,1/10/2021 23:30,7.1,26948.3,23.6
ʶҹ��Ѵ������-�ҧ�С�,1/11/2021 0:00,7.1,26389.1,23.5
ʶҹ��Ѵ������-�ҧ�С�,1/11/2021 0:30,7.2,25959.7,23.4
ʶҹ��Ѵ������-�ҧ�С�,1/11/2021 1:00,7.2,25218.6,23.4
ʶҹ��Ѵ������-�ҧ�С�,1/11/2021 1:30,7.2,24656.2,23.4
ʶҹ��Ѵ������-�ҧ�С�,1/11/2021 2:00,7.2,24837.6,23.3
ʶҹ��Ѵ������-�ҧ�С�,1/11/2021 2:30,7.2,24827.1,23.3
ʶҹ��Ѵ������-�ҧ�С�,1/11/2021 3:00,7.1,24555.8,23.3
ʶҹ��Ѵ������-�ҧ�С�,1/11/2021 3:30,7.0,25768.5,23.3
ʶҹ��Ѵ������-�ҧ�С�,1/11/2021 4:00,6.9,26170.5,23.3
ʶҹ��Ѵ������-�ҧ�С�,1/11/2021 4:30,7.0,26474.3,23.3
ʶҹ��Ѵ������-�ҧ�С�,1/11/2021 5:00,7.0,27708.4,23.3
ʶҹ��Ѵ������-�ҧ�С�,1/11/2021 5:30,7.0,28068.9,23.3
ʶҹ��Ѵ������-�ҧ�С�,1/11/2021 6:00,7.0,28609.9,23.2
ʶҹ��Ѵ������-�ҧ�С�,1/11/2021 6:30,7.0,29098.6,23.1
ʶҹ��Ѵ������-�ҧ�С�,1/11/2021 7:00,6.9,29909.6,23.1
ʶҹ��Ѵ������-�ҧ�С�,1/11/2021 7:30,6.7,30623.6,23.4
ʶҹ��Ѵ������-�ҧ�С�,1/11/2021 8:00,6.5,31396.5,23.6
ʶҹ��Ѵ������-�ҧ�С�,1/11/2021 8:30,6.3,32070.5,23.9
ʶҹ��Ѵ������-�ҧ�С�,1/11/2021 9:00,6.1,32487.8,24.6
ʶҹ��Ѵ������-�ҧ�С�,1/11/2021 9:30,6.2,32914.7,24.5
ʶҹ��Ѵ������-�ҧ�С�,1/11/2021 10:00,6.1,33178.5,24.9
ʶҹ��Ѵ������-�ҧ�С�,1/11/2021 10:30,6.2,33337.7,24.8
ʶҹ��Ѵ������-�ҧ�С�,1/11/2021 11:00,6.2,33276.5,25.0
ʶҹ��Ѵ������-�ҧ�С�,1/11/2021 11:30,6.3,33311.8,25.0
ʶҹ��Ѵ������-�ҧ�С�,1/11/2021 12:00,6.3,33207.7,25.0
ʶҹ��Ѵ������-�ҧ�С�,1/11/2021 12:30,6.1,33568.0,25.0
ʶҹ��Ѵ������-�ҧ�С�,1/11/2021 13:00,6.7,27826.4,25.4
ʶҹ��Ѵ������-�ҧ�С�,1/11/2021 13:30,6.7,32173.7,25.6
ʶҹ��Ѵ������-�ҧ�С�,1/11/2021 14:00,6.4,31821.1,25.5
ʶҹ��Ѵ������-�ҧ�С�,1/11/2021 14:30,6.7,31910.1,25.7
ʶҹ��Ѵ������-�ҧ�С�,1/11/2021 15:00,6.8,31547.1,25.7
ʶҹ��Ѵ������-�ҧ�С�,1/11/2021 15:30,6.9,32170.8,25.8
ʶҹ��Ѵ������-�ҧ�С�,1/11/2021 16:00,6.9,31984.9,25.7
ʶҹ��Ѵ������-�ҧ�С�,1/11/2021 16:30,7.1,29864.0,25.6
ʶҹ��Ѵ������-�ҧ�С�,1/11/2021 17:00,7.2,30891.7,25.4
ʶҹ��Ѵ������-�ҧ�С�,1/11/2021 17:30,8.3,29902.8,25.2
ʶҹ��Ѵ������-�ҧ�С�,1/11/2021 18:00,8.5,29565.8,24.7
ʶҹ��Ѵ������-�ҧ�С�,1/11/2021 18:30,8.6,29217.6,24.4
ʶҹ��Ѵ������-�ҧ�С�,1/11/2021 19:00,8.2,29157.3,24.1
ʶҹ��Ѵ������-�ҧ�С�,1/11/2021 19:30,7.9,29467.1,23.8
ʶҹ��Ѵ������-�ҧ�С�,1/11/2021 20:00,7.7,29798.6,23.7
ʶҹ��Ѵ������-�ҧ�С�,1/11/2021 20:30,7.6,29523.2,23.6
ʶҹ��Ѵ������-�ҧ�С�,1/11/2021 21:00,7.6,29406.4,23.5
ʶҹ��Ѵ������-�ҧ�С�,1/11/2021 21:30,7.5,29204.3,23.5
ʶҹ��Ѵ������-�ҧ�С�,1/11/2021 22:00,7.7,28339.9,23.3
ʶҹ��Ѵ������-�ҧ�С�,1/11/2021 22:30,7.7,27582.3,23.1
ʶҹ��Ѵ������-�ҧ�С�,1/11/2021 23:00,7.8,27300.2,22.9
ʶҹ��Ѵ������-�ҧ�С�,1/11/2021 23:30,7.7,26835.0,22.7
ʶҹ��Ѵ������-�ҧ�С�,1/12/2021 0:00,7.7,26294.5,22.5
ʶҹ��Ѵ������-�ҧ�С�,1/12/2021 0:30,7.7,26416.6,22.5
ʶҹ��Ѵ������-�ҧ�С�,1/12/2021 1:00,7.6,25907.9,22.4
ʶҹ��Ѵ������-�ҧ�С�,1/12/2021 1:30,7.7,25426.7,21.9
ʶҹ��Ѵ������-�ҧ�С�,1/12/2021 2:00,7.7,24966.2,21.9
ʶҹ��Ѵ������-�ҧ�С�,1/12/2021 2:30,7.7,24474.3,21.9
ʶҹ��Ѵ������-�ҧ�С�,1/12/2021 3:00,7.8,24295.7,21.8
ʶҹ��Ѵ������-�ҧ�С�,1/12/2021 3:30,7.7,24479.4,21.7
ʶҹ��Ѵ������-�ҧ�С�,1/12/2021 4:00,7.6,24777.4,21.7
ʶҹ��Ѵ������-�ҧ�С�,1/12/2021 4:30,7.6,25388.3,21.7
ʶҹ��Ѵ������-�ҧ�С�,1/12/2021 5:00,7.6,25798.5,21.7
ʶҹ��Ѵ������-�ҧ�С�,1/12/2021 5:30,7.6,26308.4,21.6
ʶҹ��Ѵ������-�ҧ�С�,1/12/2021 6:00,7.7,26790.4,21.5
ʶҹ��Ѵ������-�ҧ�С�,1/12/2021 6:30,7.6,27467.2,21.4
ʶҹ��Ѵ������-�ҧ�С�,1/12/2021 7:00,7.6,28280.3,21.4
ʶҹ��Ѵ������-�ҧ�С�,1/12/2021 7:30,7.5,28954.1,21.3
ʶҹ��Ѵ������-�ҧ�С�,1/12/2021 8:00,7.4,29403.6,21.6
ʶҹ��Ѵ������-�ҧ�С�,1/12/2021 8:30,7.2,30237.3,22.0
ʶҹ��Ѵ������-�ҧ�С�,1/12/2021 9:00,7.1,30649.0,22.5
ʶҹ��Ѵ������-�ҧ�С�,1/12/2021 9:30,7.0,30974.2,22.7
ʶҹ��Ѵ������-�ҧ�С�,1/12/2021 10:00,7.0,31237.3,22.9
ʶҹ��Ѵ������-�ҧ�С�,1/12/2021 10:30,7.1,31184.2,23.2
ʶҹ��Ѵ������-�ҧ�С�,1/12/2021 11:00,7.2,31528.8,23.1
ʶҹ��Ѵ������-�ҧ�С�,1/12/2021 11:30,7.3,31333.8,23.2
ʶҹ��Ѵ������-�ҧ�С�,1/12/2021 12:00,7.5,31194.3,23.5
ʶҹ��Ѵ������-�ҧ�С�,1/12/2021 12:30,7.2,31486.5,23.6
ʶҹ��Ѵ������-�ҧ�С�,1/12/2021 13:00,7.5,31057.6,23.9
ʶҹ��Ѵ������-�ҧ�С�,1/12/2021 13:30,6.9,31181.4,23.9
ʶҹ��Ѵ������-�ҧ�С�,1/12/2021 14:00,7.1,31338.1,24.0
ʶҹ��Ѵ������-�ҧ�С�,1/12/2021 14:30,7.6,31278.0,24.3
ʶҹ��Ѵ������-�ҧ�С�,1/12/2021 15:00,7.4,31593.3,24.2
ʶҹ��Ѵ������-�ҧ�С�,1/12/2021 15:30,7.0,31986.7,24.2
ʶҹ��Ѵ������-�ҧ�С�,1/12/2021 16:00,7.2,31892.0,24.2
ʶҹ��Ѵ������-�ҧ�С�,1/12/2021 16:30,7.8,31970.4,24.2
ʶҹ��Ѵ������-�ҧ�С�,1/12/2021 17:00,7.3,32063.6,24.1
ʶҹ��Ѵ������-�ҧ�С�,1/12/2021 17:30,7.3,32356.6,23.8
ʶҹ��Ѵ������-�ҧ�С�,1/12/2021 18:00,7.3,32270.6,23.3
ʶҹ��Ѵ������-�ҧ�С�,1/12/2021 18:30,7.2,33071.3,23.1
ʶҹ��Ѵ������-�ҧ�С�,1/12/2021 19:00,7.3,32924.1,23.0
ʶҹ��Ѵ������-�ҧ�С�,1/12/2021 19:30,7.4,32844.1,22.7
ʶҹ��Ѵ������-�ҧ�С�,1/12/2021 20:00,7.5,32961.7,22.5
ʶҹ��Ѵ������-�ҧ�С�,1/12/2021 20:30,7.4,33068.4,22.2
ʶҹ��Ѵ������-�ҧ�С�,1/12/2021 21:00,7.4,32933.1,22.1
ʶҹ��Ѵ������-�ҧ�С�,1/12/2021 21:30,7.5,32220.9,22.0
ʶҹ��Ѵ������-�ҧ�С�,1/12/2021 22:00,7.7,31656.0,21.9
ʶҹ��Ѵ������-�ҧ�С�,1/12/2021 22:30,8.0,30864.8,21.9
ʶҹ��Ѵ������-�ҧ�С�,1/12/2021 23:00,8.1,30174.9,21.8
ʶҹ��Ѵ������-�ҧ�С�,1/12/2021 23:30,8.0,29593.8,21.8
ʶҹ��Ѵ������-�ҧ�С�,1/13/2021 0:00,8.1,29042.1,21.6
ʶҹ��Ѵ������-�ҧ�С�,1/13/2021 0:30,8.1,28541.3,21.4
ʶҹ��Ѵ������-�ҧ�С�,1/13/2021 1:00,8.1,28102.9,21.3
ʶҹ��Ѵ������-�ҧ�С�,1/13/2021 1:30,8.0,27774.6,21.3
ʶҹ��Ѵ������-�ҧ�С�,1/13/2021 2:00,8.0,27369.8,21.1
ʶҹ��Ѵ������-�ҧ�С�,1/13/2021 2:30,8.1,27010.5,20.9
ʶҹ��Ѵ������-�ҧ�С�,1/13/2021 3:00,8.2,26558.1,21.1
ʶҹ��Ѵ������-�ҧ�С�,1/13/2021 3:30,8.1,26204.2,21.3
ʶҹ��Ѵ������-�ҧ�С�,1/13/2021 4:00,8.1,26190.5,21.3
ʶҹ��Ѵ������-�ҧ�С�,1/13/2021 4:30,7.9,26462.2,21.4
ʶҹ��Ѵ������-�ҧ�С�,1/13/2021 5:00,7.9,26765.2,21.2
ʶҹ��Ѵ������-�ҧ�С�,1/13/2021 5:30,7.9,27361.1,21.3
ʶҹ��Ѵ������-�ҧ�С�,1/13/2021 6:00,7.8,28141.4,21.3
ʶҹ��Ѵ������-�ҧ�С�,1/13/2021 6:30,7.8,28590.1,21.5
ʶҹ��Ѵ������-�ҧ�С�,1/13/2021 7:00,7.8,29211.2,21.5
ʶҹ��Ѵ������-�ҧ�С�,1/13/2021 7:30,7.7,29891.6,21.8
ʶҹ��Ѵ������-�ҧ�С�,1/13/2021 8:00,7.2,30953.1,22.0
ʶҹ��Ѵ������-�ҧ�С�,1/13/2021 8:30,7.0,31733.1,22.6
ʶҹ��Ѵ������-�ҧ�С�,1/13/2021 9:00,6.7,32376.8,23.4
ʶҹ��Ѵ������-�ҧ�С�,1/13/2021 9:30,6.6,33265.0,23.4
ʶҹ��Ѵ������-�ҧ�С�,1/13/2021 10:00,6.5,33701.4,23.8
ʶҹ��Ѵ������-�ҧ�С�,1/13/2021 10:30,6.6,34231.3,23.4
ʶҹ��Ѵ������-�ҧ�С�,1/13/2021 11:00,6.7,34632.8,23.2
ʶҹ��Ѵ������-�ҧ�С�,1/13/2021 11:30,6.7,35156.8,23.4
ʶҹ��Ѵ������-�ҧ�С�,1/13/2021 12:00,6.7,35615.8,23.8
ʶҹ��Ѵ������-�ҧ�С�,1/13/2021 12:30,6.7,35746.2,23.9
ʶҹ��Ѵ������-�ҧ�С�,1/13/2021 13:00,6.8,35744.3,24.3
ʶҹ��Ѵ������-�ҧ�С�,1/13/2021 13:30,6.7,35423.2,24.3
ʶҹ��Ѵ������-�ҧ�С�,1/13/2021 14:00,6.8,35230.9,24.4
ʶҹ��Ѵ������-�ҧ�С�,1/13/2021 14:30,7.2,33333.4,24.1
ʶҹ��Ѵ������-�ҧ�С�,1/13/2021 15:00,7.0,34830.5,24.3
ʶҹ��Ѵ������-�ҧ�С�,1/13/2021 15:30,7.3,33293.3,24.6
ʶҹ��Ѵ������-�ҧ�С�,1/13/2021 16:00,6.9,34881.0,24.3
ʶҹ��Ѵ������-�ҧ�С�,1/13/2021 16:30,7.0,35077.8,24.6
ʶҹ��Ѵ������-�ҧ�С�,1/13/2021 17:00,7.1,34927.2,24.3
ʶҹ��Ѵ������-�ҧ�С�,1/13/2021 17:30,7.4,34755.0,24.0
ʶҹ��Ѵ������-�ҧ�С�,1/13/2021 18:00,7.3,35249.3,23.5
ʶҹ��Ѵ������-�ҧ�С�,1/13/2021 18:30,7.2,35500.3,23.1
ʶҹ��Ѵ������-�ҧ�С�,1/13/2021 19:00,6.9,35796.6,22.9